Missouri River (Missouri), Waverly (06895500)

StateMissouriLatestUnknown (78200 cfs)
RiverMissouri RiverRatingObservedEstimated
Updated2020-08-07 13:00 (1 hour ago)Flood - The river is flooding. Obstacles can be treacherous or deadly. The river should be avoided at this stage for casual trips and definitely for the inexperienced. Trips should be attempted only with protective gear and equipment.Flood(none)(none)
Discharge78200 cfs (median: 53800 cfs)High - The river is high and potentially dangerous, especially for the young and / or inexperienced. Normal stream obstacles are sometimes difficult to navigate. Extended distances can be attempted, but canoe travel may not be advisable.High(none)(none)
Height16.13 feetGood - Conditions are ideal for a canoe or kayak. Boats typically will drag on fewer than one-quarter of riffles, if at all, and portages are unnecessary or rare. Normal float lengths can be attempted without a problem.Good(none)(none)
TrendFalling (rising over 24 hours)Low - River is low but can still be floated. Some riffles are okay but most come with significant dragging and might need a portage. Float lengths should be reduced to accommodate low flow, dragging, and portages.Low(none)(none)
USGSExternal icon USGS Site (External icon Google Maps)Poor - River is too low to float comfortably. Most or all riffles will drag or must be portaged and some obstacles (such as slick shelf rock) cause undue problems. Avoid the river at this stage for casual paddling trips.Poor(none)(none)

Trending Data

Plot Image

Trips for Missouri River (Missouri), Waverly (06895500)

DateStartEndDistanceConditionDischargeHeightFishingDetails

A total of 0 rows are displayed.

Condition Descriptions

Fishing Conditions

Fish Species

Notes

Classic Trip List

The classic River Trips application is still available for use. It is updated with the new system using a data retrofit. It is no longer maintained. The original River Trips application is no longer updated (as of 1 Dec 2016) but can be checked for errors or for the condition of the data before it was converted to the new system.

Gauge Data Table

ObservationHeightDischargeMaximum
Discharge
Minimum
Discharge
Mean
Discharge
P05P10P20P25P50
(Median)
P75P80P90P95
2020-08-07 13:00 16.13 78200 203000 (2011) 30400 (2002) 62000 35000 35600 40900 42300 53800 70100 74500 85400 134000
2020-08-07 12:00 16.19 78700 203000 (2011) 30400 (2002) 62000 35000 35600 40900 42300 53800 70100 74500 85400 134000
2020-08-07 11:00 16.20 78700 203000 (2011) 30400 (2002) 62000 35000 35600 40900 42300 53800 70100 74500 85400 134000
2020-08-07 10:00 16.16 78500 203000 (2011) 30400 (2002) 62000 35000 35600 40900 42300 53800 70100 74500 85400 134000
2020-08-07 09:00 16.18 78600 203000 (2011) 30400 (2002) 62000 35000 35600 40900 42300 53800 70100 74500 85400 134000
2020-08-07 08:00 16.13 78200 203000 (2011) 30400 (2002) 62000 35000 35600 40900 42300 53800 70100 74500 85400 134000
2020-08-07 07:00 16.14 78300 203000 (2011) 30400 (2002) 62000 35000 35600 40900 42300 53800 70100 74500 85400 134000
2020-08-07 06:00 16.18 78600 203000 (2011) 30400 (2002) 62000 35000 35600 40900 42300 53800 70100 74500 85400 134000
2020-08-07 05:00 16.17 78500 203000 (2011) 30400 (2002) 62000 35000 35600 40900 42300 53800 70100 74500 85400 134000
2020-08-07 04:00 16.17 78500 203000 (2011) 30400 (2002) 62000 35000 35600 40900 42300 53800 70100 74500 85400 134000
2020-08-07 03:00 16.20 78700 203000 (2011) 30400 (2002) 62000 35000 35600 40900 42300 53800 70100 74500 85400 134000
2020-08-07 02:00 16.18 78600 203000 (2011) 30400 (2002) 62000 35000 35600 40900 42300 53800 70100 74500 85400 134000
2020-08-07 01:00 16.14 78300 203000 (2011) 30400 (2002) 62000 35000 35600 40900 42300 53800 70100 74500 85400 134000
2020-08-07 00:00 16.14 78300 203000 (2011) 30400 (2002) 62000 35000 35600 40900 42300 53800 70100 74500 85400 134000
2020-08-06 23:00 16.15 78400 205000 (1993) 30400 (2002) 62700 35100 35500 41000 43000 53000 72000 76200 83300 130000
2020-08-06 22:00 16.15 78400 205000 (1993) 30400 (2002) 62700 35100 35500 41000 43000 53000 72000 76200 83300 130000
2020-08-06 21:00 16.18 78600 205000 (1993) 30400 (2002) 62700 35100 35500 41000 43000 53000 72000 76200 83300 130000
2020-08-06 20:00 16.21 78800 205000 (1993) 30400 (2002) 62700 35100 35500 41000 43000 53000 72000 76200 83300 130000
2020-08-06 19:00 16.16 78500 205000 (1993) 30400 (2002) 62700 35100 35500 41000 43000 53000 72000 76200 83300 130000
2020-08-06 18:00 16.11 78100 205000 (1993) 30400 (2002) 62700 35100 35500 41000 43000 53000 72000 76200 83300 130000
2020-08-06 17:00 16.07 77800 205000 (1993) 30400 (2002) 62700 35100 35500 41000 43000 53000 72000 76200 83300 130000
2020-08-06 16:00 16.14 76100 205000 (1993) 30400 (2002) 62700 35100 35500 41000 43000 53000 72000 76200 83300 130000
2020-08-06 15:00 16.18 76400 205000 (1993) 30400 (2002) 62700 35100 35500 41000 43000 53000 72000 76200 83300 130000
2020-08-06 14:00 16.17 76400 205000 (1993) 30400 (2002) 62700 35100 35500 41000 43000 53000 72000 76200 83300 130000
2020-08-06 13:00 16.16 76300 205000 (1993) 30400 (2002) 62700 35100 35500 41000 43000 53000 72000 76200 83300 130000
2020-08-06 12:00 16.19 76500 205000 (1993) 30400 (2002) 62700 35100 35500 41000 43000 53000 72000 76200 83300 130000
2020-08-06 11:00 16.18 76400 205000 (1993) 30400 (2002) 62700 35100 35500 41000 43000 53000 72000 76200 83300 130000
2020-08-06 10:00 16.10 75900 205000 (1993) 30400 (2002) 62700 35100 35500 41000 43000 53000 72000 76200 83300 130000
2020-08-06 09:00 16.08 75700 205000 (1993) 30400 (2002) 62700 35100 35500 41000 43000 53000 72000 76200 83300 130000
2020-08-06 08:00 16.12 76000 205000 (1993) 30400 (2002) 62700 35100 35500 41000 43000 53000 72000 76200 83300 130000
2020-08-06 07:00 16.04 75400 205000 (1993) 30400 (2002) 62700 35100 35500 41000 43000 53000 72000 76200 83300 130000
2020-08-06 06:00 16.05 75500 205000 (1993) 30400 (2002) 62700 35100 35500 41000 43000 53000 72000 76200 83300 130000
2020-08-06 05:00 15.99 75100 205000 (1993) 30400 (2002) 62700 35100 35500 41000 43000 53000 72000 76200 83300 130000
2020-08-06 04:00 15.98 75000 205000 (1993) 30400 (2002) 62700 35100 35500 41000 43000 53000 72000 76200 83300 130000
2020-08-06 03:00 15.95 74800 205000 (1993) 30400 (2002) 62700 35100 35500 41000 43000 53000 72000 76200 83300 130000
2020-08-06 02:00 15.96 74900 205000 (1993) 30400 (2002) 62700 35100 35500 41000 43000 53000 72000 76200 83300 130000
2020-08-06 01:00 15.90 74400 205000 (1993) 30400 (2002) 62700 35100 35500 41000 43000 53000 72000 76200 83300 130000
2020-08-06 00:00 15.85 74100 205000 (1993) 30400 (2002) 62700 35100 35500 41000 43000 53000 72000 76200 83300 130000
2020-08-05 23:00 15.85 74100 220000 (1993) 30600 (2002) 63200 34900 36200 40600 43100 53000 75400 78600 82700 129000
2020-08-05 22:00 15.85 74100 220000 (1993) 30600 (2002) 63200 34900 36200 40600 43100 53000 75400 78600 82700 129000
2020-08-05 21:00 15.82 73900 220000 (1993) 30600 (2002) 63200 34900 36200 40600 43100 53000 75400 78600 82700 129000
2020-08-05 20:00 15.77 73500 220000 (1993) 30600 (2002) 63200 34900 36200 40600 43100 53000 75400 78600 82700 129000
2020-08-05 19:00 15.75 73400 220000 (1993) 30600 (2002) 63200 34900 36200 40600 43100 53000 75400 78600 82700 129000
2020-08-05 18:00 15.70 73000 220000 (1993) 30600 (2002) 63200 34900 36200 40600 43100 53000 75400 78600 82700 129000
2020-08-05 17:00 15.72 73200 220000 (1993) 30600 (2002) 63200 34900 36200 40600 43100 53000 75400 78600 82700 129000
2020-08-05 16:00 15.74 73300 220000 (1993) 30600 (2002) 63200 34900 36200 40600 43100 53000 75400 78600 82700 129000
2020-08-05 15:00 15.75 73400 220000 (1993) 30600 (2002) 63200 34900 36200 40600 43100 53000 75400 78600 82700 129000
2020-08-05 14:00 15.77 73500 220000 (1993) 30600 (2002) 63200 34900 36200 40600 43100 53000 75400 78600 82700 129000
2020-08-05 13:00 15.78 73600 220000 (1993) 30600 (2002) 63200 34900 36200 40600 43100 53000 75400 78600 82700 129000
2020-08-05 12:00 15.74 73300 220000 (1993) 30600 (2002) 63200 34900 36200 40600 43100 53000 75400 78600 82700 129000
2020-08-05 11:00 15.78 73600 220000 (1993) 30600 (2002) 63200 34900 36200 40600 43100 53000 75400 78600 82700 129000
2020-08-05 10:00 15.79 73700 220000 (1993) 30600 (2002) 63200 34900 36200 40600 43100 53000 75400 78600 82700 129000
2020-08-05 09:00 15.76 73500 220000 (1993) 30600 (2002) 63200 34900 36200 40600 43100 53000 75400 78600 82700 129000
2020-08-05 08:00 15.81 73800 220000 (1993) 30600 (2002) 63200 34900 36200 40600 43100 53000 75400 78600 82700 129000
2020-08-05 07:00 15.83 73900 220000 (1993) 30600 (2002) 63200 34900 36200 40600 43100 53000 75400 78600 82700 129000
2020-08-05 06:00 15.86 74200 220000 (1993) 30600 (2002) 63200 34900 36200 40600 43100 53000 75400 78600 82700 129000
2020-08-05 05:00 15.87 74200 220000 (1993) 30600 (2002) 63200 34900 36200 40600 43100 53000 75400 78600 82700 129000
2020-08-05 04:00 15.88 74300 220000 (1993) 30600 (2002) 63200 34900 36200 40600 43100 53000 75400 78600 82700 129000
2020-08-05 03:00 15.91 74500 220000 (1993) 30600 (2002) 63200 34900 36200 40600 43100 53000 75400 78600 82700 129000
2020-08-05 02:00 15.92 74600 220000 (1993) 30600 (2002) 63200 34900 36200 40600 43100 53000 75400 78600 82700 129000
2020-08-05 01:00 15.93 74600 220000 (1993) 30600 (2002) 63200 34900 36200 40600 43100 53000 75400 78600 82700 129000
2020-08-05 00:00 15.95 74800 220000 (1993) 30600 (2002) 63200 34900 36200 40600 43100 53000 75400 78600 82700 129000
2020-08-04 23:00 15.98 75000 242000 (1993) 30900 (2002) 64600 34600 37000 40700 43600 51600 76300 81000 95900 134000
2020-08-04 22:00 16.00 75100 242000 (1993) 30900 (2002) 64600 34600 37000 40700 43600 51600 76300 81000 95900 134000
2020-08-04 21:00 16.04 75400 242000 (1993) 30900 (2002) 64600 34600 37000 40700 43600 51600 76300 81000 95900 134000
2020-08-04 20:00 16.05 75500 242000 (1993) 30900 (2002) 64600 34600 37000 40700 43600 51600 76300 81000 95900 134000
2020-08-04 19:00 16.03 75400 242000 (1993) 30900 (2002) 64600 34600 37000 40700 43600 51600 76300 81000 95900 134000
2020-08-04 18:00 16.15 76200 242000 (1993) 30900 (2002) 64600 34600 37000 40700 43600 51600 76300 81000 95900 134000
2020-08-04 17:00 16.18 76400 242000 (1993) 30900 (2002) 64600 34600 37000 40700 43600 51600 76300 81000 95900 134000
2020-08-04 16:00 16.18 76400 242000 (1993) 30900 (2002) 64600 34600 37000 40700 43600 51600 76300 81000 95900 134000
2020-08-04 15:00 16.27 77100 242000 (1993) 30900 (2002) 64600 34600 37000 40700 43600 51600 76300 81000 95900 134000
2020-08-04 14:00 16.31 77400 242000 (1993) 30900 (2002) 64600 34600 37000 40700 43600 51600 76300 81000 95900 134000
2020-08-04 13:00 16.23 76800 242000 (1993) 30900 (2002) 64600 34600 37000 40700 43600 51600 76300 81000 95900 134000
2020-08-04 12:00 16.34 77600 242000 (1993) 30900 (2002) 64600 34600 37000 40700 43600 51600 76300 81000 95900 134000
2020-08-04 11:00 16.38 77900 242000 (1993) 30900 (2002) 64600 34600 37000 40700 43600 51600 76300 81000 95900 134000
2020-08-04 10:00 16.45 78400 242000 (1993) 30900 (2002) 64600 34600 37000 40700 43600 51600 76300 81000 95900 134000
2020-08-04 09:00 16.48 78600 242000 (1993) 30900 (2002) 64600 34600 37000 40700 43600 51600 76300 81000 95900 134000
2020-08-04 08:00 16.52 78900 242000 (1993) 30900 (2002) 64600 34600 37000 40700 43600 51600 76300 81000 95900 134000
2020-08-04 07:00 16.57 79300 242000 (1993) 30900 (2002) 64600 34600 37000 40700 43600 51600 76300 81000 95900 134000
2020-08-04 06:00 16.60 79500 242000 (1993) 30900 (2002) 64600 34600 37000 40700 43600 51600 76300 81000 95900 134000
2020-08-04 05:00 16.66 79900 242000 (1993) 30900 (2002) 64600 34600 37000 40700 43600 51600 76300 81000 95900 134000
2020-08-04 04:00 16.71 80300 242000 (1993) 30900 (2002) 64600 34600 37000 40700 43600 51600 76300 81000 95900 134000
2020-08-04 03:00 16.76 80700 242000 (1993) 30900 (2002) 64600 34600 37000 40700 43600 51600 76300 81000 95900 134000
2020-08-04 02:00 16.81 81000 242000 (1993) 30900 (2002) 64600 34600 37000 40700 43600 51600 76300 81000 95900 134000
2020-08-04 01:00 16.87 81500 242000 (1993) 30900 (2002) 64600 34600 37000 40700 43600 51600 76300 81000 95900 134000
2020-08-04 00:00 16.92 81900 242000 (1993) 30900 (2002) 64600 34600 37000 40700 43600 51600 76300 81000 95900 134000

A total of 86 rows are displayed for years 1958 through 2019.